This demonstration page uses our WeatherBlox Daily Observations layout. Learn more.

Hourly Observations for October 29, 2018

Temp ( °F °C ) Dew Point ( °F °C ) Humidity (%) Winds ( mph kmh ) Pressure ( in mb ) Visibility ( mi km ) Precip ( " mm )
12:15 am 00:15 Clear 49 9.5 34 1.3 57 57 S 9 15 30.09 1019 10 16.09344 0 0
12:35 am 00:35 Clear 48 9.1 34 1.3 58 58 S 12 19 30.06 1018 10 16.09344 0 0
12:55 am 00:55 Clear 49 9.3 34 1.3 58 58 SSW 13 20 30.06 1018 10 16.09344 0 0
1:15 am 01:15 Clear 49 9.2 34 1.3 58 58 SSW 13 20 30.06 1018 10 16.09344 0 0
1:35 am 01:35 Clear 49 9.5 34 1.2 57 57 SSW 12 19 30.03 1017 10 16.09344 0 0
1:55 am 01:55 Clear 49 9.7 34 1 55 55 SSW 13 20 30.03 1017 10 16.09344 0 0
2:15 am 02:15 Clear 49 9.3 34 1 56 56 SSW 10 17 30 1016 10 16.09344 0 0
2:35 am 02:35 Clear 48 8.8 34 1.1 59 59 SSW 9 15 30.03 1017 10 16.09344 0 0
2:55 am 02:55 Clear 47 8.1 34 1.3 63 63 SSW 7 11 30.03 1017 10 16.09344 0 0
3:15 am 03:15 Clear 47 8.3 34 1.3 62 62 SSW 10 17 30.03 1017 10 16.09344 0 0
3:35 am 03:35 Clear 47 8.3 34 1.3 62 62 S 8 13 30.03 1017 10 16.09344 0 0
3:55 am 03:55 Clear 45 7.3 34 1.3 66 66 S 6 9 30 1016 10 16.09344 0 0
4:15 am 04:15 Clear 46 7.5 35 1.5 66 66 S 8 13 30 1016 10 16.09344 0 0
4:35 am 04:35 Clear 45 7.2 35 1.5 67 67 SSW 7 11 30 1016 10 16.09344 0 0
4:55 am 04:55 Clear 46 7.7 35 1.5 65 65 SSW 10 17 30 1016 10 16.09344 0 0
5:15 am 05:15 Clear 46 7.9 35 1.5 64 64 SSW 12 19 30 1016 10 16.09344 0 0
5:35 am 05:35 Clear 46 7.8 34 1.3 64 64 SSW 10 17 29.97 1015 10 16.09344 0 0
5:55 am 05:55 Clear 46 7.6 34 1.3 65 65 SSW 8 13 29.97 1015 10 16.09344 0 0
6:15 am 06:15 Clear 46 7.5 34 1.2 65 65 SSW 9 15 29.97 1015 10 16.09344 0 0
6:35 am 06:35 Clear 46 7.8 34 1.3 64 64 SSW 9 15 29.97 1015 10 16.09344 0 0
6:55 am 06:55 Clear 47 8.1 34 1.3 63 63 SSW 13 20 29.97 1015 10 16.09344 0 0
7:15 am 07:15 Clear 47 8.1 35 1.4 63 63 SSW 14 22 29.94 1014 10 16.09344 0 0
7:35 am 07:35 Clear 46 8 35 1.5 64 64 SSW 14 22 29.94 1014 10 16.09344 0 0
7:55 am 07:55 Clear 46 8 35 1.6 64 64 SSW 13 20 29.94 1014 10 16.09344 0 0
8:15 am 08:15 Sunny 46 7.5 35 1.7 67 67 SSW 9 15 29.94 1014 10 16.09344 0 0
8:35 am 08:35 Sunny 46 7.7 36 2.1 68 68 SSW 13 20 29.94 1014 10 16.09344 0 0
8:55 am 08:55 Sunny 47 8.3 37 2.5 67 67 SSW 12 19 29.91 1013 10 16.09344 0 0
9:15 am 09:15 Sunny 49 9.5 37 3 64 64 SSW 15 24 29.91 1013 10 16.09344 0 0
9:35 am 09:35 Sunny 51 10.6 38 3.5 62 62 SSW 17 28 29.91 1013 10 16.09344 0 0
9:55 am 09:55 Sunny 52 11 39 3.8 61 61 SSW 18 30 29.91 1013 10 16.09344 0 0
10:15 am 10:15 Sunny 54 12 40 4.5 60 60 SSW 20 31 29.88 1012 10 16.09344 0 0
10:35 am 10:35 Sunny 55 12.5 41 5.1 61 61 SSW 17 28 29.88 1012 10 16.09344 0 0
10:55 am 10:55 Sunny 56 13.2 42 5.6 60 60 SSW 17 28 29.85 1011 10 16.09344 0 0
11:15 am 11:15 Sunny 58 14.5 43 6.1 57 57 SSW 18 30 29.85 1011 10 16.09344 0 0
11:35 am 11:35 Sunny 60 15.5 44 6.6 56 56 SSW 17 28 29.83 1010 10 16.09344 0 0
11:55 am 11:55 Sunny 61 16.1 44 6.9 55 55 SSW 20 31 29.8 1009 10 16.09344 0 0
12:15 pm 12:15 Sunny 62 16.9 45 7.1 53 53 S 18 30 29.8 1009 10 16.09344 0 0
12:35 pm 12:35 Sunny 63 17 45 7.3 53 53 S 12 19 29.77 1008 10 16.09344 0 0
12:55 pm 12:55 Sunny 65 18.2 46 7.7 51 51 SSW 17 28 29.74 1007 10 16.09344 0 0
1:15 pm 13:15 Sunny 66 18.7 46 8 50 50 SSW 14 22 29.74 1007 10 16.09344 0 0
1:35 pm 13:35 Sunny 65 18.3 46 7.8 51 51 S 12 19 29.74 1007 10 16.09344 0 0
1:55 pm 13:55 Sunny 66 18.7 47 8.1 50 50 SSW 10 17 29.71 1006 10 16.09344 0 0
2:15 pm 14:15 Sunny 67 19.7 47 8.2 48 48 S 14 22 29.71 1006 10 16.09344 0 0
2:35 pm 14:35 Sunny 69 20.5 47 8.6 47 47 SSW 13 20 29.71 1006 10 16.09344 0 0
2:55 pm 14:55 Sunny 68 20 47 8.4 47 47 S 9 15 29.71 1006 10 16.09344 0 0
3:15 pm 15:15 Sunny 69 20.8 47 8.6 46 46 S 10 17 29.71 1006 10 16.09344 0 0
3:35 pm 15:35 Sunny 70 21.1 47 8.6 45 45 S 14 22 29.68 1005 10 16.09344 0 0
3:55 pm 15:55 Sunny 71 21.5 48 8.8 44 44 S 14 22 29.68 1005 10 16.09344 0 0
4:15 pm 16:15 Sunny 70 21.2 48 9 46 46 S 13 20 29.65 1004 10 16.09344 0 0
4:35 pm 16:35 Sunny 70 20.9 48 9.1 47 47 S 10 17 29.65 1004 10 16.09344 0 0
4:55 pm 16:55 Sunny 69 20.5 49 9.5 49 49 S 10 17 29.68 1005 10 16.09344 0 0
5:15 pm 17:15 Sunny 68 20.2 49 9.7 51 51 S 8 13 29.68 1005 10 16.09344 0 0
5:35 pm 17:35 Sunny 67 19.7 50 9.8 53 53 S 9 15 29.68 1005 10 16.09344 0 0
5:55 pm 17:55 Sunny 66 18.9 50 10.1 57 57 SSE 6 9 29.68 1005 10 16.09344 0 0
6:15 pm 18:15 Sunny 64 17.7 50 10.1 61 61 SSE 7 11 29.65 1004 10 16.09344 0 0
6:35 pm 18:35 Sunny 62 16.4 49 9.7 65 65 SSE 8 13 29.68 1005 10 16.09344 0 0
6:55 pm 18:55 Clear 58 14.7 49 9.3 70 70 SSE 7 11 29.68 1005 10 16.09344 0 0
7:15 pm 19:15 Clear 58 14.5 49 9.7 73 73 SSE 8 13 29.68 1005 10 16.09344 0 0
7:35 pm 19:35 Clear 58 14.5 50 10.1 75 75 SSE 6 9 29.71 1006 10 16.09344 0 0
7:55 pm 19:55 Clear 57 13.9 50 10 78 78 SSE 6 9 29.71 1006 10 16.09344 0 0
8:15 pm 20:15 Clear 56 13.2 50 10 81 81 S 6 9 29.74 1007 10 16.09344 0 0
8:35 pm 20:35 Clear 56 13.1 50 10 82 82 S 8 13 29.71 1006 10 16.09344 0 0
8:55 pm 20:55 Clear 55 12.6 50 9.8 83 83 SSE 7 11 29.74 1007 10 16.09344 0 0
9:15 pm 21:15 Clear 54 12.3 50 10 86 86 S 8 13 29.71 1006 10 16.09344 0 0
9:35 pm 21:35 Clear 53 11.9 49 9.7 87 87 S 7 11 29.71 1006 10 16.09344 0 0
9:55 pm 21:55 Clear 53 11.5 49 9.7 89 89 SSE 6 9 29.71 1006 10 16.09344 0 0
10:15 pm 22:15 Clear 52 11 49 9.4 90 90 S 3 6 29.74 1007 10 16.09344 0 0
10:35 pm 22:35 Clear 51 10.8 49 9.5 92 92 Calm 29.74 1007 10 16.09344 0 0
10:55 pm 22:55 Clear 50 10.2 48 9 92 92 S 5 7 29.71 1006 10 16.09344 0 0
11:15 pm 23:15 Clear 51 10.5 49 9.3 92 92 Calm 29.74 1007 10 16.09344 0 0
11:35 pm 23:35 Clear 52 11 50 10.1 94 94 NNW 16 26 29.77 1008 10 16.09344 0 0
11:55 pm 23:55 Clear 53 11.4 50 10 91 91 N 10 17 29.77 1008 10 16.09344 0 0

Powered by AerisWeather